Weather History for Sacramento, CA

Change the Weather History Date:

Monday, February 18, 2013

  Actual Average Record
Temperature  
Mean Temperature 47 °F -  
Max Temperature 57 °F 61 °F 74 °F (1977)
Min Temperature 36 °F 42 °F 29 °F (1956)
Degree Days  
Heating Degree Days 18    
Cooling Degree Days 0    
Moisture  
Dew Point 38 °F    
Average Humidity 74    
Maximum Humidity 92    
Minimum Humidity 55    
Precipitation  
Precipitation 0.00 in 0.13 in 1.81 in (1958)
Month to date precipitation 0.02 2.25  
Year to date precipitation 0.98 5.89  
Since 1 July precipitation 12.27 12.51  
Sea Level Pressure  
Sea Level Pressure 29.97 in    
Wind  
Wind Speed 7 mph (SSW)    
Max Wind Speed 20 mph    
Max Gust Speed 25 mph    
Visibility 10 miles    
Events      
T = Trace of Precipitation, MM = Missing Value Source: NWS Daily Summary

Daily Weather History Graph

Daily Weather History Graph

Search for Another Location

Airport:

Trip Planner

Search our weather history database for the weather conditions in past years. The results will help you decide how hot, cold, wet, or windy it might be!

Date:

Astronomy

Feb. 18, 2013 Rise Set
Actual Time 6:52 AM PST 5:47 PM PST
Civil Twilight 6:25 AM PST 6:14 PM PST
Nautical Twilight 5:54 AM PST 6:45 PM PST
Astronomical Twilight 5:23 AM PST 7:16 PM PST
Moon 11:39 AM PST (2/18) 1:34 AM PST (2/18)
Length of Visible Light 11h 49m
Length of Day
10h 55m
First Quarter, 59% of the Moon is Illuminated
Feb 18
First Quarter
Feb 25
Full
Mar 4
Last Quarter
Mar 11
New
Mar 19
First Quarter

Hourly Weather History & Observations

Time (PST) Temp. Windchill Dew Point Humidity Pressure Visibility Wind Dir Wind Speed Gust Speed Precip Events Conditions
12:53 AM 39.0 °F - 35.1 °F 86% 30.00 in 10.0 mi Calm Calm - N/A   Clear
1:53 AM 39.0 °F - 35.1 °F 86% 30.00 in 10.0 mi Calm Calm - N/A   Clear
2:53 AM 39.0 °F 36.8 °F 35.1 °F 86% 29.99 in 10.0 mi SE 3.5 mph - N/A   Clear
3:53 AM 39.2 °F 37.0 °F 35.6 °F 87% 29.98 in 10.0 mi ESE 3.5 mph - N/A   Clear
4:53 AM 39.0 °F 35.7 °F 35.1 °F 86% 29.98 in 10.0 mi SSE 4.6 mph - N/A   Clear
5:53 AM 39.2 °F 37.0 °F 35.6 °F 87% 29.98 in 9.0 mi South 3.5 mph - N/A   Clear
6:53 AM 39.9 °F 37.8 °F 37.0 °F 89% 29.99 in 9.0 mi South 3.5 mph - N/A   Clear
7:53 AM 46.0 °F 43.1 °F 41.0 °F 83% 30.01 in 9.0 mi SSW 5.8 mph - N/A   Clear
8:53 AM 48.9 °F - 43.0 °F 80% 30.01 in 10.0 mi SW 11.5 mph - N/A   Clear
9:53 AM 51.1 °F - 42.1 °F 71% 30.02 in 10.0 mi SSW 9.2 mph - N/A   Clear
10:53 AM 53.1 °F - 43.0 °F 69% 30.02 in 10.0 mi SW 8.1 mph - N/A   Clear
11:53 AM 57.0 °F - 43.0 °F 59% 30.00 in 10.0 mi SSW 10.4 mph 17.3 mph N/A   Clear
12:53 PM 55.9 °F - 42.1 °F 60% 29.98 in 10.0 mi SW 17.3 mph 23.0 mph N/A   Clear
1:53 PM 55.0 °F - 39.9 °F 57% 29.95 in 10.0 mi SW 15.0 mph 20.7 mph N/A   Clear
2:53 PM 53.1 °F - 39.0 °F 59% 29.94 in 10.0 mi SW 13.8 mph 23.0 mph N/A   Clear
3:53 PM 53.1 °F - 37.9 °F 57% 29.93 in 10.0 mi SW 17.3 mph 24.2 mph N/A   Clear
4:53 PM 52.0 °F - 37.9 °F 59% 29.92 in 10.0 mi SW 13.8 mph 19.6 mph N/A   Clear
5:53 PM 50.0 °F - 37.0 °F 61% 29.93 in 10.0 mi SW 16.1 mph 23.0 mph N/A   Partly Cloudy
6:53 PM 48.9 °F - 37.0 °F 64% 29.93 in 10.0 mi SSW 11.5 mph 24.2 mph N/A   Clear
7:53 PM 48.0 °F - 37.0 °F 66% 29.93 in 10.0 mi South 12.7 mph 18.4 mph N/A   Clear
8:53 PM 48.0 °F - 37.9 °F 68% 29.93 in 10.0 mi South 10.4 mph 18.4 mph N/A   Mostly Cloudy
9:53 PM 48.0 °F - 39.0 °F 71% 29.94 in 10.0 mi SSW 15.0 mph 21.9 mph N/A   Mostly Cloudy
10:53 PM 46.0 °F 40.2 °F 37.9 °F 73% 29.93 in 10.0 mi South 12.7 mph 24.2 mph N/A   Mostly Cloudy
11:53 PM 46.4 °F 41.9 °F 35.6 °F 66% 29.93 in 10.0 mi South 9.2 mph 18.4 mph N/A   Mostly Cloudy